Showing default

HAIYANG 1C, 43609

Orbit data source: Space-Track

HAIYANG 1C, 43609 is a Chinese payload satellite in SSO that was launched on Fri, 07 Sep 2018 UTC via a CHANG ZHENG 2C launch vehicle from the Taiyaun Space Center, China (TSC). Payload-class satellites include a variety of spacecraft equipped with specific instruments for various scientific and technological missions. These include communications satellites like Starlink; space stations such as the ISS; scientific satellites like the Hubble; Earth observation satellites from companies like Planet Labs, Umbra, and HawkEye 360; GPS; miniature CubeSats for education and research; and military/defense satellites.

Loading next visibility...
Identifier
43609, 2018-068A
Orbit
SSO
Country
Flag of CNCN / PRC
Related business
Manufacturer
DFH
Mission
Operational Civil Imaging
Bus & Motor
CAST-968, Unknown motor
Mass
442 kg wet, 429 kg dry
Launch date (UTC)
2018-09-07 (7 years ago)
Launch vehicle
CHANG ZHENG 2C
Launch site
Taiyaun Space Center, China (TSC)
Object type
Payload
Rocket body
Debris
Shape & HBR
Box + 2 Pan, 3.8 m
Radar Cross Section
3.660 m², Large (>1 m²)

Expand to show TLE details & history
Last TLE update: 6 hours ago

TLE from 6 hours ago
0 HAIYANG 1C
1 43609U 18068A   25347.03422711  .00000415  00000-0  16410-3 0  9991
2 43609  98.5428  56.8495 0009730 288.2687  71.7438 14.34102383380401
Epoch: 2025-12-13T00:49Z
TLE epoch observation values (Epoch: 2025-12-13T00:49:17.222Z)
Latitude
-0.00009°
Longitude
-37.43954°
Altitude
778.814 km
Speed
7.466 km/s
True Right ascension
03h 47m 23s
True Declination
0° 00' 00"
Sunlit
Object was in full shadow at epoch
Visualization orbit readout
Latitude
Unknown
Longitude
Unknown
Altitude
Unknown
Speed
Unknown
Apparent Right ascension
Unknown
Apparent Declination
Unknown
Sunlit
N/A
Visualization observer readout
Local Sidereal Time
05:21:39
Azimuth
Unknown
Elevation
Unknown
Doppler factor
Unknown
Orbital elements
Apogee altitude
782.143 km
Perigee altitude
768.223 km
Semi-major axis
7,153.32 km
Eccentricity
0.00097
Inclination
98.5428°
RAAN
56.8495°
Arg. of periapsis
288.2687°
True anomaly
71.84973°
Mean anomaly
71.7438°
Eccentric anomaly
71.79676°
Mean motion
3.58742 °/min
Orbital period
100.35 mins
BSTAR
0.0001641
Loading maneuver chart data...
Computing Atmospheric mass density...
Loading historical data...
Loading historical data...
Loading historical data...
Loading historical data...
Loading historical data...
Loading historical data...
Loading historical data...
Other satellites on launch #68 in the year 2018 (2018-09-07 UTC)

Documentation

Showing up to 5 results
|